Flag for Norway Weather past 2 weeks in Bergen, Norway

Now
56 °F

Cool.


Feels Like: 53 °F
Forecast: 55 / 63 °F
Wind: 9 mph from Northwest

Location: Bergen / Florida

Current Time: Aug 20, 2014 at 7:45:30 AM

Latest Report: Aug 20, 2014 at 7:00 AM


Visibility: N/A

Pressure: 29.50 "Hg

Humidity: 78%

Dew point: 49 °F

Location of BergenLocation

Historic Weather in Bergen — Graph

°F

Bergen temperature yesterday

Maximum temperature yesterday: 63 °F (at 1:00 PM)
Minimum temperature yesterday: 56 °F (at 12:00 AM)
Average temperature yesterday: 58 °F

Past Weeks' High & Low Weather Summary

 TemperatureHumidityPressure
High74 °F (Aug 9, 9:00 PM)90% (Aug 15, 4:00 AM)30.03 "Hg (Aug 15, 4:00 AM)
Low51 °F (Aug 18, 3:00 AM)31% (Aug 11, 1:00 PM)29.18 "Hg (Aug 18, 11:00 AM)
Average61 °F70%29.58 "Hg
* Reported Aug 5 6:00 AM — Aug 20 6:00 AM, Bergen, Weather by CustomWeather, © 2014

Note: Actual official high and low records may vary slightly from our data, if they occured in-between our weather recording intervals... More about our weather records

Advertising

Bergen weather history for previous 24 hours

 ConditionsComfort  
Time TempWeatherWind HumidityBarometerVisibility
6:00 AM
Aug 20
55 °FCool.8 mph81%29.50 "HgN/A
5:00 AM55 °FCool.7 mph82%29.50 "HgN/A
4:00 AM56 °FCool.7 mph78%29.50 "HgN/A
3:00 AM56 °FCool.8 mph78%29.47 "HgN/A
2:00 AM56 °FCool.8 mph78%29.47 "HgN/A
1:00 AM56 °FCool.8 mph77%29.50 "HgN/A
12:00 AM57 °FCool.7 mph74%29.50 "HgN/A
11:00 PM
Aug 19
57 °FOvercast.9 mph74%29.47 "Hg19 mi
10:00 PM57 °FCool.8 mph74%29.47 "HgN/A
9:00 PM57 °FCool.9 mph71%29.47 "HgN/A
8:00 PM58 °FOvercast.9 mph69%29.44 "Hg19 mi
7:00 PM59 °FCool.8 mph70%29.44 "HgN/A
6:00 PM59 °FCool.8 mph69%29.44 "HgN/A
5:00 PM60 °FOvercast.8 mph69%29.41 "Hg19 mi
4:00 PM61 °FCool.8 mph65%29.41 "HgN/A
3:00 PM62 °FCool.8 mph65%29.38 "HgN/A
2:00 PM63 °FPartly sunny.10 mph62%29.38 "Hg17 mi
1:00 PM63 °FMild.9 mph61%29.35 "HgN/A
12:00 PM60 °FCool.9 mph68%29.35 "HgN/A
11:00 AM59 °FOvercast.8 mph71%29.35 "Hg17 mi
10:00 AM58 °FCool.8 mph73%29.35 "HgN/A
9:00 AM57 °FCool.8 mph73%29.32 "HgN/A
8:00 AM57 °FPartly sunny.7 mph74%29.32 "Hg17 mi
7:00 AM57 °FCool.9 mph74%29.29 "HgN/A
Weather by CustomWeather, © 2014

See weather overviewHow to use our weather pages